This is the latest recevied weather packets stored in our database for station/object EA3HRE-13. If no packets are shown the sender has not sent any weather packets the latest 10 day(s).
| Time | Temp. | Humidity | Pressure | Rain* | Wind** | Luminosity | Snow |
|---|---|---|---|---|---|---|---|
| 1777635976 | 23.89° C | 100% | 1021.6 hPa | 0 mm | - | - | - |
| 1777635376 | 24.44° C | 100% | 1021.7 hPa | 0 mm | - | - | - |
| 1777634776 | 24.44° C | 100% | 1021.5 hPa | 0 mm | - | - | - |
| 1777634176 | 24.44° C | 100% | 1021.5 hPa | 0 mm | - | - | - |
| 1777633576 | 24.44° C | 100% | 1021.5 hPa | 0 mm | - | - | - |
| 1777632975 | 25° C | 100% | 1021.6 hPa | 0 mm | - | - | - |
| 1777632345 | 25° C | 100% | 1021.5 hPa | 0 mm | - | - | - |
| 1777631745 | 25° C | 100% | 1021.5 hPa | 0 mm | - | - | - |
| 1777631145 | 23.89° C | 100% | 1021.5 hPa | 0 mm | - | - | - |
| 1777630545 | 23.89° C | 100% | 1021.7 hPa | 0 mm | - | - | - |
| 1777629945 | 23.33° C | 100% | 1021.5 hPa | 0 mm | - | - | - |
| 1777629315 | 23.33° C | 100% | 1021.5 hPa | 0 mm | - | - | - |
| 1777628715 | 23.33° C | 100% | 1021.6 hPa | 0 mm | - | - | - |
| 1777628115 | 22.22° C | 100% | 1021.5 hPa | 0 mm | - | - | - |
| 1777627515 | 22.22° C | 100% | 1021.5 hPa | 0 mm | - | - | - |
| 1777626885 | 22.22° C | 100% | 1021.6 hPa | 0 mm | - | - | - |
| 1777626285 | 21.11° C | 100% | 1021.4 hPa | 0 mm | - | - | - |
| 1777625684 | 21.11° C | 100% | 1021.6 hPa | 0 mm | - | - | - |
| 1777625054 | 21.11° C | 100% | 1021.6 hPa | 0 mm | - | - | - |
| 1777624424 | 20.56° C | 100% | 1021.4 hPa | 0 mm | - | - | - |
| 1777623824 | 20° C | 100% | 1021.4 hPa | 0 mm | - | - | - |
| 1777623194 | 20° C | 100% | 1020.6 hPa | 0 mm | - | - | - |
| 1777622594 | 20° C | 100% | 1021.4 hPa | 0 mm | - | - | - |
| 1777621994 | 19.44° C | 100% | 1021.4 hPa | 0 mm | - | - | - |
| 1777621364 | 18.89° C | 100% | 1021.5 hPa | 0 mm | - | - | - |
* Rain latest hour (hover to see other rain measurements)
** Current wind speed in m/s (hover to see current wind gust speed)